| time (UTC) | temp F | wind direction | speed knots | gust knots | rain 1hr in | rain 24hr in | rain mn in | humidity % | barometer mb |
| 20260507140604 | 51 | 126 | 4.3 | 10.4 | 0.00 | 0.00 | 0.00 | 3 | 1013.4 |
| 20260507140106 | 51 | 147 | 5.2 | 13.0 | 0.00 | 0.00 | 0.00 | 3 | 1013.4 |
| 20260507130604 | 51 | 136 | 6.1 | 10.4 | 0.00 | 0.00 | 0.00 | 3 | 1013.4 |
| 20260507130106 | 51 | 140 | 4.3 | 13.9 | 0.00 | 0.00 | 0.00 | 3 | 1013.5 |
| 20260507120604 | 51 | 126 | 2.6 | 10.4 | 0.00 | 0.00 | 0.00 | 3 | 1013.5 |
| 20260507120106 | 51 | 122 | 5.2 | 11.3 | 0.00 | 0.00 | 0.00 | 3 | 1013.6 |
| 20260507110604 | 51 | 184 | 3.5 | 7.0 | 0.00 | 0.00 | 0.00 | 3 | 1013.7 |
| 20260507110105 | 51 | 155 | 4.3 | 10.4 | 0.00 | 0.00 | 0.00 | 3 | 1013.8 |
| 20260507100604 | 51 | 151 | 4.3 | 10.4 | 0.00 | 0.00 | 0.00 | 3 | 1013.8 |
| 20260507100106 | 51 | 127 | 5.2 | 12.2 | 0.00 | 0.00 | 0.00 | 3 | 1013.9 |
| 20260507090602 | 51 | 133 | 5.2 | 10.4 | 0.00 | 0.00 | 0.00 | 3 | 1013.8 |
| 20260507080603 | 51 | 140 | 5.2 | 8.7 | 0.00 | 0.00 | 0.00 | 3 | 1013.9 |
| 20260507080110 | 51 | 156 | 2.6 | 7.8 | 0.00 | 0.00 | 0.00 | 3 | 1013.8 |
| 20260507070603 | 51 | 116 | 1.7 | 6.1 | 0.00 | 0.00 | 0.00 | 3 | 1013.3 |
| 20260507060603 | 51 | 136 | 1.7 | 4.3 | 0.00 | 0.00 | 0.00 | 3 | 1013.4 |
| 20260507060105 | 51 | 136 | 0.9 | 2.6 | 0.00 | 0.00 | 0.00 | 3 | 1013.3 |
| 20260507050603 | 51 | 186 | 1.7 | 2.6 | 0.00 | 0.00 | 0.00 | 3 | 1013.1 |
| 20260507050104 | 51 | 143 | 0.9 | 6.1 | 0.00 | 0.00 | 0.00 | 3 | 1013.0 |
| 20260507040603 | 51 | 143 | 2.6 | 4.3 | 0.00 | 0.00 | 0.00 | 3 | 1013.6 |
| 20260507030603 | 51 | 188 | 1.7 | 2.6 | 0.00 | 0.00 | 0.00 | 3 | 1014.2 |
| 20260507030104 | 51 | 188 | 1.7 | 4.3 | 0.00 | 0.00 | 0.00 | 3 | 1014.2 |
| 20260507010604 | 51 | 191 | 1.7 | 2.6 | 0.00 | 0.00 | 0.00 | 3 | 1014.2 |
| 20260507010105 | 51 | 191 | 0.9 | 2.6 | 0.00 | 0.00 | 0.00 | 3 | 1014.2 |
| 20260507000604 | 51 | 191 | 0.9 | 2.6 | 0.00 | 0.00 | 0.00 | 3 | 1014.4 |
| 20260507000105 | 51 | 191 | 0.9 | 2.6 | 0.00 | 0.00 | 0.00 | 3 | 1014.4 |
| 20260506230105 | 51 | 192 | 0.0 | 0.9 | 0.00 | 0.00 | 0.00 | 3 | 1014.5 |
| 20260506220604 | 51 | 192 | 0.0 | 0.0 | 0.00 | 0.00 | 0.00 | 3 | 1014.3 |
| 20260506220105 | 51 | 192 | 0.0 | 2.6 | 0.00 | 0.00 | 0.00 | 3 | 1014.3 |
| 20260506210604 | 51 | 192 | 0.0 | 0.0 | 0.00 | 0.00 | 0.00 | 3 | 1014.2 |
| 20260506200603 | 51 | 192 | 0.0 | 0.9 | 0.00 | 0.00 | 0.00 | 3 | 1013.9 |
| 20260506200105 | 51 | 192 | 0.0 | 2.6 | 0.00 | 0.00 | 0.00 | 3 | 1013.7 |
| 20260506190604 | 51 | 114 | 0.9 | 1.7 | 0.00 | 0.00 | 0.00 | 3 | 1013.4 |
| 20260506180604 | 51 | 115 | 0.9 | 2.6 | 0.00 | 0.00 | 0.00 | 3 | 1013.0 |
| 20260506180106 | 51 | 115 | 0.9 | 2.6 | 0.00 | 0.00 | 0.00 | 3 | 1013.0 |
| 20260506170112 | 51 | 69 | 0.9 | 4.3 | 0.00 | 0.00 | 0.00 | 3 | 1012.7 |
| 20260506160604 | 51 | 63 | 0.9 | 2.6 | 0.00 | 0.00 | 0.00 | 3 | 1012.7 |
| 20260506160105 | 51 | 60 | 0.9 | 2.6 | 0.00 | 0.00 | 0.00 | 3 | 1012.7 |
| 20260506150604 | 51 | 63 | 1.7 | 4.3 | 0.00 | 0.00 | 0.00 | 3 | 1012.8 |
| 20260506150105 | 51 | 96 | 2.6 | 8.7 | 0.00 | 0.00 | 0.00 | 3 | 1012.8 |